CW2433 Weather Reports


Display with metric or nautical units.
time (UTC)temp
F
wind
direction
speed
MPH
gust
MPH
rain 1hr
in
rain 24hr
in
rain mn
in
humidity
%
barometer
mb
20260502130510 40 312 0.0 0.0 0.00 0.00 0.00 88 1024.1
20260502123510 36 343 0.0 0.0 0.00 0.00 0.00 87 1024.1
20260502123010 36 346 0.0 0.0 0.00 0.00 0.00 87 1024.1
20260502122509 35 346 0.0 0.0 0.00 0.00 0.00 86 1024.1
20260502122009 35 346 0.0 0.0 0.00 0.00 0.00 86 1024.1
20260502121508 34 342 0.0 0.0 0.00 0.00 0.00 86 1024.2
20260502121009 34 344 0.0 0.0 0.00 0.00 0.00 85 1024.1
20260502115509 33 342 0.0 0.0 0.00 0.00 0.00 84 1024.0
20260502115009 33 345 0.0 0.0 0.00 0.00 0.00 83 1023.9
20260502114510 33 346 0.0 0.0 0.00 0.00 0.00 83 1023.9
20260502114009 33 345 0.0 0.0 0.00 0.00 0.00 83 1023.8
20260502113509 33 346 0.0 0.0 0.00 0.00 0.00 83 1023.8
20260502113010 33 346 0.0 0.0 0.00 0.00 0.00 83 1023.8
20260502112509 33 346 0.0 0.0 0.00 0.00 0.00 82 1023.7
20260502112009 33 346 0.0 0.0 0.00 0.00 0.00 82 1023.7
20260502111509 34 346 0.0 0.0 0.00 0.00 0.00 82 1023.7
20260502111009 34 346 0.0 0.0 0.00 0.00 0.00 82 1023.6
20260502110509 34 346 0.0 0.0 0.00 0.00 0.00 82 1023.6
20260502110009 34 346 0.0 0.0 0.00 0.00 0.00 82 1023.6
20260502105509 34 346 0.0 0.0 0.00 0.00 0.00 82 1023.6
20260502105009 34 346 0.0 0.0 0.00 0.00 0.00 82 1023.6
20260502104510 34 346 0.0 0.0 0.00 0.00 0.00 82 1023.6
20260502104009 34 346 0.0 0.0 0.00 0.00 0.00 81 1023.5
20260502103510 34 346 0.0 0.0 0.00 0.00 0.00 81 1023.6
20260502103010 34 345 0.0 0.0 0.00 0.00 0.00 81 1023.5
20260502102510 34 346 0.0 0.0 0.00 0.00 0.00 81 1023.5
20260502101010 34 345 0.0 0.0 0.00 0.00 0.00 81 1023.5
20260502100509 34 346 0.0 0.0 0.00 0.00 0.00 80 1023.4
20260502091510 35 345 0.0 0.0 0.00 0.00 0.00 79 1023.3
20260502091010 35 345 0.0 0.0 0.00 0.00 0.00 79 1023.1
20260502090510 35 346 0.0 0.0 0.00 0.00 0.00 79 1023.1
20260502071508 38 346 0.0 0.0 0.00 0.00 0.00 77 1023.1
20260502071009 38 346 0.0 0.0 0.00 0.00 0.00 76 1023.1
20260502070509 38 346 0.0 0.0 0.00 0.00 0.00 76 1023.1
20260502065508 38 346 0.0 0.0 0.00 0.00 0.00 75 1023.1
20260502064510 39 346 0.0 0.0 0.00 0.00 0.00 74 1023.1
20260502064009 39 345 0.0 0.0 0.00 0.00 0.00 74 1023.2
20260502063010 39 346 0.0 0.0 0.00 0.00 0.00 72 1023.2
20260502062009 39 345 0.0 0.0 0.00 0.00 0.00 71 1023.0
20260502061510 39 346 0.0 0.0 0.00 0.00 0.00 71 1023.0
20260502061009 39 311 0.0 0.0 0.00 0.00 0.00 71 1022.9
20260502060509 40 314 0.0 0.0 0.00 0.00 0.00 70 1022.9
20260502060009 40 305 0.0 0.0 0.00 0.00 0.00 70 1022.8
20260502055509 40 313 0.0 0.0 0.00 0.00 0.00 69 1022.8
20260502055009 40 326 0.0 0.0 0.00 0.00 0.00 69 1022.8
20260502053010 41 339 0.0 0.0 0.00 0.00 0.00 67 1022.7
20260502052508 41 341 0.0 0.0 0.00 0.00 0.00 66 1022.7
20260502052010 41 342 0.0 0.0 0.00 0.00 0.00 66 1022.7
20260502051509 41 342 0.0 0.0 0.00 0.00 0.00 66 1022.6
20260502051010 42 344 0.0 0.0 0.00 0.00 0.00 66 1022.6
20260502050509 42 344 0.0 0.0 0.00 0.00 0.00 66 1022.6
20260502045511 42 344 0.0 0.0 0.00 0.00 0.00 63 1022.5
20260502045009 42 344 0.0 0.0 0.00 0.00 0.00 61 1022.5
20260502044509 42 344 0.0 0.0 0.00 0.00 0.00 60 1022.4
20260502044009 42 344 0.0 0.0 0.00 0.00 0.00 60 1022.4
20260502043509 43 344 0.0 0.0 0.00 0.00 0.00 59 1022.4
20260502043009 43 345 0.0 0.0 0.00 0.00 0.00 59 1022.4
20260502042508 43 345 0.0 0.0 0.00 0.00 0.00 58 1022.5
20260502042009 43 345 0.0 0.0 0.00 0.00 0.00 57 1022.5
20260502041509 44 345 0.0 0.0 0.00 0.00 0.00 56 1022.3
20260502041009 44 345 0.0 0.0 0.00 0.00 0.00 56 1022.3
20260502040509 44 345 0.0 0.0 0.00 0.00 0.00 55 1022.2
20260502040010 45 345 0.0 0.0 0.00 0.00 0.00 55 1022.3
20260502035509 45 346 0.0 0.0 0.00 0.00 0.00 55 1022.3
20260502035009 45 346 0.0 0.0 0.00 0.00 0.00 54 1022.3
20260502034009 46 346 0.0 0.0 0.00 0.00 0.00 53 1022.3
20260502033509 46 346 0.0 0.0 0.00 0.00 0.00 52 1022.3
20260502033010 46 346 0.0 0.0 0.00 0.00 0.00 51 1022.2
20260502032509 47 345 0.0 0.0 0.00 0.00 0.00 50 1022.2
20260502032009 47 345 0.0 1.0 0.00 0.00 0.00 50 1022.2
20260502031510 47 346 0.0 1.0 0.00 0.00 0.00 50 1022.2
20260502031009 48 346 0.0 0.0 0.00 0.00 0.00 49 1022.1
20260502030509 48 346 0.0 0.0 0.00 0.00 0.00 48 1022.0
20260502030009 48 346 0.0 0.0 0.00 0.00 0.00 47 1022.1
20260502025509 49 345 0.0 0.0 0.00 0.00 0.00 46 1022.0
20260502024510 50 346 0.0 0.0 0.00 0.00 0.00 45 1021.7
20260502024010 50 345 0.0 0.0 0.00 0.00 0.00 44 1021.7
20260502023509 50 346 0.0 2.0 0.00 0.00 0.00 44 1021.7
20260502022510 51 345 1.0 3.0 0.00 0.00 0.00 43 1021.6
20260502022010 51 18 1.0 5.0 0.00 0.00 0.00 43 1021.6
20260502021510 51 340 2.0 5.0 0.00 0.00 0.00 42 1021.6
20260502021010 51 343 1.0 5.0 0.00 0.00 0.00 42 1021.3
20260502020509 52 348 2.0 5.0 0.00 0.00 0.00 42 1021.3
20260502015510 52 0 1.0 5.0 0.00 0.00 0.00 41 1021.2
20260502015010 52 42 2.0 6.0 0.00 0.00 0.00 40 1021.1
20260502014510 53 349 2.0 6.0 0.00 0.00 0.00 40 1021.1
20260502014010 53 0 2.0 9.0 0.00 0.00 0.00 39 1021.1
20260502013509 53 357 3.0 9.0 0.00 0.00 0.00 39 1021.1
20260502013010 53 324 3.0 9.0 0.00 0.00 0.00 38 1021.1
20260502012510 54 0 5.0 9.0 0.00 0.00 0.00 37 1020.9
20260502011510 54 0 5.0 10.0 0.00 0.00 0.00 36 1020.8
20260502011010 54 9 5.0 10.0 0.00 0.00 0.00 36 1020.6
20260502010510 54 0 4.0 10.0 0.00 0.00 0.00 37 1020.6
20260502010010 55 328 3.0 10.0 0.00 0.00 0.00 36 1020.6
20260502005510 55 350 5.0 10.0 0.00 0.00 0.00 35 1020.6
20260502005009 55 328 5.0 12.0 0.00 0.00 0.00 35 1020.6
20260502004509 55 334 7.0 13.0 0.00 0.00 0.00 35 1020.6
20260502004009 55 322 6.0 15.0 0.00 0.00 0.00 35 1020.6
20260502003509 56 0 6.0 15.0 0.00 0.00 0.00 35 1020.4
20260502003009 56 323 4.0 12.0 0.00 0.00 0.00 35 1020.4
20260502002508 56 307 4.0 12.0 0.00 0.00 0.00 34 1020.3
20260502002009 56 340 5.0 14.0 0.00 0.00 0.00 35 1020.2
20260502001509 56 344 7.0 14.0 0.00 0.00 0.00 35 1020.3
20260502001009 56 0 5.0 14.0 0.00 0.00 0.00 34 1020.3
20260502000508 56 2 2.0 15.0 0.00 0.00 0.00 35 1020.3
20260502000010 57 1 8.0 15.0 0.00 0.00 0.00 34 1020.3
20260501235509 57 343 7.0 13.0 0.00 0.00 0.00 34 1020.3
20260501234509 57 342 7.0 12.0 0.00 0.00 0.00 33 1020.3
20260501234009 57 257 3.0 15.0 0.00 0.00 0.00 34 1020.3
20260501233508 57 344 7.0 15.0 0.00 0.00 0.00 33 1020.2
20260501233010 57 9 5.0 14.0 0.00 0.00 0.00 33 1020.2
20260501232509 58 317 7.0 17.0 0.00 0.00 0.00 32 1020.1
20260501232009 58 11 3.0 17.0 0.00 0.00 0.00 34 1020.1
20260501231510 58 330 6.0 14.0 0.00 0.00 0.00 33 1020.1
20260501231009 58 34 6.0 13.0 0.00 0.00 0.00 33 1020.1
20260501230508 58 289 4.0 13.0 0.00 0.00 0.00 33 1020.2
20260501230009 58 279 3.0 8.0 0.00 0.00 0.00 34 1020.2
20260501225508 58 265 3.0 9.0 0.00 0.00 0.00 33 1020.2
20260501224509 58 266 5.0 15.0 0.00 0.00 0.00 34 1020.2
20260501224009 58 259 3.0 15.0 0.00 0.00 0.00 34 1020.2
20260501223510 58 247 3.0 10.0 0.00 0.00 0.00 34 1020.2
20260501222009 58 9 10.0 15.0 0.00 0.00 0.00 34 1020.2
20260501221010 58 321 6.0 12.0 0.00 0.00 0.00 33 1020.1
20260501220009 58 5 7.0 16.0 0.00 0.00 0.00 34 1020.2
20260501215510 58 302 5.0 12.0 0.00 0.00 0.00 35 1020.2
20260501214509 58 261 3.0 12.0 0.00 0.00 0.00 34 1020.2
20260501214010 58 304 3.0 16.0 0.00 0.00 0.00 33 1020.2
20260501213013 59 321 8.0 16.0 0.00 0.00 0.00 33 1020.2
20260501212509 59 265 3.0 13.0 0.00 0.00 0.00 35 1020.2
20260501212010 59 0 3.0 7.0 0.00 0.00 0.00 35 1020.2
20260501211509 59 284 3.0 12.0 0.00 0.00 0.00 36 1020.2
20260501211010 59 327 3.0 14.0 0.00 0.00 0.00 34 1020.2
20260501210009 59 346 6.0 14.0 0.00 0.00 0.00 35 1020.2
20260501205510 59 337 7.0 17.0 0.00 0.00 0.00 35 1020.4
20260501204509 59 267 4.0 15.0 0.00 0.00 0.00 35 1020.4
20260501204010 59 303 5.0 15.0 0.00 0.00 0.00 35 1020.5
20260501203510 59 347 4.0 15.0 0.00 0.00 0.00 37 1020.4
20260501203010 59 300 4.0 21.0 0.00 0.00 0.00 35 1020.5
20260501202510 59 308 5.0 21.0 0.00 0.00 0.00 36 1020.6
20260501202009 59 346 6.0 12.0 0.00 0.00 0.00 36 1020.6
20260501201509 59 345 3.0 15.0 0.00 0.00 0.00 38 1020.6
20260501201010 59 331 6.0 15.0 0.00 0.00 0.00 36 1020.6
20260501200509 59 342 6.0 12.0 0.00 0.00 0.00 38 1020.6
20260501200009 59 331 2.0 12.0 0.00 0.00 0.00 39 1020.6
20260501195509 59 227 2.0 12.0 0.00 0.00 0.00 39 1020.6
20260501195009 58 343 4.0 12.0 0.00 0.00 0.00 40 1020.6
20260501194509 58 240 4.0 10.0 0.00 0.00 0.00 40 1020.7
20260501194010 58 272 5.0 12.0 0.00 0.00 0.00 39 1020.7
20260501193509 58 331 1.0 16.0 0.00 0.00 0.00 39 1020.7
20260501193009 58 309 7.0 16.0 0.00 0.00 0.00 40 1020.7
20260501192509 58 338 8.0 16.0 0.00 0.00 0.00 39 1020.8
20260501192009 58 329 3.0 14.0 0.00 0.00 0.00 42 1020.7
20260501191509 58 284 3.0 14.0 0.00 0.00 0.00 43 1020.7
20260501190509 58 14 7.0 13.0 0.00 0.00 0.00 42 1020.7
20260501190009 58 9 5.0 17.0 0.00 0.00 0.00 43 1020.7
20260501185509 58 215 4.0 17.0 0.00 0.00 0.00 44 1020.7
20260501184510 57 290 4.0 16.0 0.00 0.00 0.00 45 1020.7
20260501184009 57 313 7.0 16.0 0.00 0.00 0.00 41 1020.7
20260501183509 57 298 9.0 13.0 0.00 0.00 0.00 42 1020.7
20260501182509 57 290 3.0 16.0 0.00 0.00 0.00 46 1020.7
20260501182010 57 23 8.0 17.0 0.00 0.00 0.00 44 1020.7
20260501181510 58 332 10.0 17.0 0.00 0.00 0.00 42 1020.7
20260501181009 59 345 9.0 17.0 0.00 0.00 0.00 44 1020.7
20260501180509 59 2 5.0 15.0 0.00 0.00 0.00 45 1020.7
20260501175508 59 354 6.0 15.0 0.00 0.00 0.00 47 1020.8
20260501175010 58 284 3.0 12.0 0.00 0.00 0.00 45 1020.9
20260501174510 58 11 2.0 13.0 0.00 0.00 0.00 49 1020.9
20260501174010 57 264 5.0 15.0 0.00 0.00 0.00 50 1021.0
20260501173509 57 345 6.0 16.0 0.00 0.00 0.00 50 1021.1
20260501173010 57 292 5.0 16.0 0.00 0.00 0.00 50 1021.2
20260501172509 57 330 5.0 14.0 0.00 0.00 0.00 49 1021.1
20260501172010 57 349 6.0 15.0 0.00 0.00 0.00 49 1021.1
20260501171510 57 341 7.0 15.0 0.00 0.00 0.00 50 1021.1
20260501170510 56 352 8.0 15.0 0.00 0.00 0.00 53 1021.1
20260501170010 56 348 4.0 16.0 0.00 0.00 0.00 54 1021.1
20260501165510 55 331 8.0 16.0 0.00 0.00 0.00 54 1021.2
20260501165010 55 328 7.0 16.0 0.00 0.00 0.00 54 1021.2
20260501164510 55 337 6.0 14.0 0.00 0.00 0.00 55 1021.1
20260501164010 55 319 6.0 10.0 0.00 0.00 0.00 56 1021.1
20260501163010 55 0 5.0 13.0 0.00 0.00 0.00 58 1021.0
20260501162010 54 292 3.0 16.0 0.00 0.00 0.00 59 1021.1
20260501161011 54 288 3.0 15.0 0.00 0.00 0.00 61 1021.1
20260501160510 53 311 5.0 17.0 0.00 0.00 0.00 61 1020.9
20260501155510 53 343 5.0 14.0 0.00 0.00 0.00 62 1020.9
20260501154009 52 351 6.0 16.0 0.00 0.00 0.00 62 1020.8
20260501153509 52 337 5.0 14.0 0.00 0.00 0.00 62 1020.8
20260501152509 51 325 6.0 13.0 0.00 0.00 0.00 62 1020.7
20260501151009 51 338 3.0 12.0 0.00 0.00 0.00 63 1020.7
20260501150509 50 344 5.0 10.0 0.00 0.00 0.00 63 1020.8
20260501150012 50 336 3.0 9.0 0.00 0.00 0.00 64 1020.6
20260501145509 50 351 2.0 9.0 0.00 0.00 0.00 65 1020.6
20260501144509 49 314 2.0 7.0 0.00 0.00 0.00 65 1020.6
20260501144009 49 340 4.0 10.0 0.00 0.00 0.00 66 1020.7
20260501143509 49 308 3.0 12.0 0.00 0.00 0.00 66 1020.7
20260501142509 48 349 5.0 12.0 0.00 0.00 0.00 65 1020.7
20260501142009 48 337 3.0 7.0 0.00 0.00 0.00 66 1020.7